Wind_Speed
25 25 25 25 24 24 24 24 24 24 23 23 23 23 23 22 22 22 21 21 20 20 19 19 18 17 16 16 16 17 17 18 19 18 18 19 20 20 20 21 21 21 22 23 23 24 24 24 24 25 25 25 25 25 25 25 25 25 24 24 24 23 23 22 21 21 20 18 17 17 17 18 17 16 15 15 14 13 13 12 12 13 14 13 13 15 14 14
25 25 25 25 25 25 25 25 25 24 24 24 23 23 22 22 22 22 21 21 21 20 20 20 19 19 19 19 19 19 20 21 22 22 21 22 23 23 23 24 24 24 24 25 26 26 26 26 26 26 27 27 27 27 27 27 27 26 26 26 26 25 25 26 24 24 23 21 19 19 18 18 19 18 16 16 16 16 15 12 12 14 14 14 14 15 15 14
25 25 25 25 24 24 24 24 24 23 23 23 22 22 22 22 22 21 21 21 21 21 21 21 21 21 21 22 22 22 23 24 25 25 25 26 26 26 27 27 27 27 27 28 28 28 28 28 28 28 29 29 29 29 29 29 28 28 27 27 28 27 27 28 27 26 26 25 24 22 20 19 19 19 18 18 17 18 18 14 13 15 15 14 14 15 15 15
26 26 26 25 25 25 25 25 24 24 24 24 24 24 24 24 23 23 23 23 23 23 23 23 23 23 24 24 25 25 26 27 28 28 28 29 29 29 30 30 30 30 30 30 30 30 30 30 30 30 30 31 30 30 31 31 30 29 29 29 30 30 28 28 28 27 28 28 27 25 24 22 21 20 20 19 17 19 21 16 15 16 16 15 15 16 16 15
29 29 29 28 28 28 28 28 27 27 27 27 27 27 27 27 26 27 26 26 26 26 26 26 26 26 27 27 28 28 29 30 30 30 31 31 32 32 33 32 32 32 32 32 32 32 32 32 31 31 31 32 31 31 32 33 31 29 30 31 31 31 29 29 30 29 29 29 29 29 27 25 24 23 22 20 18 21 24 20 17 18 18 17 16 17 17 17
33 33 33 32 32 32 31 31 31 31 31 31 31 30 31 30 30 30 30 30 29 30 30 29 30 30 30 30 30 31 31 33 33 33 33 34 34 35 35 35 34 34 34 34 34 34 34 34 33 32 32 32 32 32 33 34 32 30 30 32 33 33 30 29 31 31 31 30 30 31 29 28 27 26 24 21 20 23 25 23 19 19 20 20 18 18 18 19
36 36 36 35 35 35 35 34 34 34 34 34 34 34 34 33 33 33 33 33 33 33 33 33 33 33 33 33 33 33 32 35 36 35 35 36 36 36 36 36 36 35 36 35 35 35 35 35 34 34 33 32 32 33 34 33 33 32 30 32 34 33 31 30 31 31 32 31 31 33 31 29 30 29 25 21 22 25 27 25 23 22 22 21 20 20 20 21
38 38 38 37 37 37 37 37 36 36 36 36 36 36 36 36 36 36 36 35 35 36 35 36 36 36 36 35 35 33 33 37 38 37 36 36 36 36 35 35 35 35 35 35 35 35 35 35 35 36 34 33 34 33 35 35 34 33 31 32 33 33 32 31 31 32 33 33 34 35 32 30 31 31 26 23 26 28 28 28 26 25 24 23 23 22 23 23
39 39 39 39 38 38 38 38 37 37 37 37 37 37 37 37 37 37 37 37 37 37 37 38 37 38 37 36 36 31 32 37 38 36 36 35 35 34 34 34 33 33 33 33 34 34 34 35 36 36 35 34 34 34 35 36 34 33 33 33 32 33 32 31 31 31 34 35 36 36 33 31 33 32 25 24 30 30 30 30 29 29 26 25 25 25 25 25
37 37 38 38 37 37 37 37 37 36 36 36 36 36 36 36 36 36 36 36 36 36 37 37 37 38 36 36 34 28 31 37 35 34 34 34 33 33 32 32 32 31 32 32 33 33 34 35 36 36 36 35 34 33 35 36 35 34 35 34 32 32 31 30 30 31 35 37 36 37 34 32 33 32 25 24 33 34 33 32 31 31 29 29 28 27 28 27
35 35 35 35 35 35 36 36 35 35 35 35 35 35 35 35 35 35 35 35 35 35 35 36 36 37 36 34 31 28 31 34 33 32 33 33 33 33 32 32 32 32 32 32 33 33 34 36 36 37 37 36 34 34 35 36 36 35 35 34 31 32 29 27 30 32 37 38 37 39 37 32 32 32 26 27 35 35 34 33 33 33 32 33 32 30 30 30
35 35 35 35 35 35 35 35 35 35 35 35 35 35 35 35 35 35 36 36 36 35 36 37 37 37 37 34 29 30 32 32 32 33 34 34 34 33 33 33 33 33 32 32 34 35 35 37 38 38 38 37 34 34 35 35 36 35 36 35 30 32 29 23 29 35 38 39 37 40 41 34 31 30 27 30 36 36 35 34 34 36 36 36 36 34 33 32
37 37 36 36 36 36 36 36 36 36 35 36 36 37 37 37 37 37 37 38 38 38 38 39 40 40 40 34 30 33 34 32 33 34 36 36 35 34 34 34 33 33 33 33 35 36 37 38 40 40 39 38 35 34 35 35 36 35 37 37 31 32 28 20 29 37 38 40 38 42 45 36 28 28 28 32 37 38 37 36 36 37 37 38 38 38 37 35
40 39 39 39 39 38 38 38 38 38 38 38 38 39 39 39 39 39 40 40 40 40 41 42 42 43 43 36 31 34 35 34 35 36 38 37 36 35 34 35 35 35 35 36 37 37 39 40 41 42 40 39 36 35 36 36 36 34 37 38 33 35 31 22 30 35 36 39 39 43 47 39 28 25 27 33 37 38 39 38 38 39 38 38 38 39 39 38
42 42 41 41 41 41 41 41 41 40 40 40 41 41 42 42 42 42 43 43 43 44 44 44 44 45 46 39 34 36 36 36 37 39 39 38 38 37 36 37 37 37 37 37 38 39 40 42 43 43 42 40 37 36 38 38 36 35 38 38 35 39 39 30 29 32 35 38 40 43 47 43 31 23 26 33 37 39 40 39 39 40 40 40 39 39 40 39
44 44 43 43 43 43 43 43 43 43 43 43 43 44 44 45 45 44 45 45 45 46 46 47 46 47 48 41 37 38 38 38 39 40 40 39 39 38 37 38 37 37 38 38 38 39 41 44 45 45 44 41 37 37 40 42 37 34 39 42 39 42 44 39 30 28 33 38 41 43 47 46 34 25 27 31 34 38 40 39 39 40 41 40 40 39 40 39
45 45 44 44 44 44 44 44 44 44 44 44 45 45 46 47 46 46 46 46 47 47 48 48 46 48 48 43 40 39 39 40 41 40 40 39 39 38 38 38 38 38 39 39 39 39 41 44 46 46 45 41 36 38 43 44 39 35 40 45 45 44 46 44 35 28 32 39 42 44 48 46 37 30 29 29 32 37 39 37 37 38 38 39 39 38 38 38
45 45 45 45 45 45 44 44 44 44 44 45 45 45 47 48 47 47 47 47 47 47 48 48 47 49 48 44 43 41 40 41 41 40 40 39 39 39 40 40 40 41 41 41 40 41 43 44 47 48 45 39 36 39 45 45 41 41 43 46 48 47 47 46 39 32 34 40 43 46 49 47 41 35 31 28 29 34 36 34 34 35 34 34 35 35 35 36
47 46 46 46 46 46 45 45 45 45 45 46 46 46 47 48 49 48 48 48 48 48 49 49 47 50 49 45 45 44 43 42 42 42 41 40 41 41 41 41 42 43 43 42 41 43 45 46 49 49 43 38 36 40 45 44 44 46 47 48 49 49 49 46 39 35 37 44 48 48 50 49 45 39 34 30 29 32 33 31 32 33 32 32 32 33 34 35
48 48 48 48 48 48 48 48 48 48 48 48 48 48 49 49 50 50 50 50 50 49 50 50 49 50 50 48 48 48 47 46 46 44 43 42 43 43 42 42 43 45 43 42 43 45 46 49 50 47 41 37 38 41 44 45 46 48 49 50 50 50 51 45 39 37 39 49 53 50 51 51 47 41 36 34 32 31 30 30 32 32 32 32 31 32 32 34
51 51 51 51 51 51 51 51 51 51 50 50 50 50 51 52 52 52 52 52 51 51 51 52 52 52 51 51 52 51 51 50 48 46 44 44 45 45 44 44 46 46 44 44 46 46 48 51 49 44 40 40 41 41 43 45 47 49 51 52 52 51 51 47 43 41 41 52 57 53 54 53 48 45 39 37 36 32 30 31 32 31 31 30 30 30 31 33
53 54 54 54 54 53 53 53 53 53 52 52 52 52 52 53 54 54 55 55 53 53 54 54 54 55 54 54 54 53 52 48 45 43 43 44 44 44 45 46 47 47 47 47 47 47 51 53 47 42 42 43 42 41 42 45 46 49 50 53 54 52 51 51 47 43 45 54 58 55 57 56 51 49 43 38 38 35 31 31 30 30 31 30 29 30 31 31
56 55 55 56 55 55 55 54 54 54 54 54 54 54 54 54 55 56 57 58 56 54 55 55 56 58 56 56 54 51 48 44 42 41 40 41 41 42 44 45 45 47 47 46 45 48 53 51 44 42 44 44 43 42 43 45 46 48 49 52 54 51 51 55 52 48 50 55 58 58 60 59 54 51 47 40 39 37 33 32 31 30 31 31 31 31 30 30
57 57 57 57 57 56 56 56 56 56 56 56 56 56 57 56 57 58 59 60 60 56 55 56 58 59 57 55 52 49 47 45 44 41 39 40 40 41 42 43 44 46 45 43 44 49 51 48 44 45 46 45 46 45 43 44 47 48 48 49 52 50 51 55 55 54 55 56 58 60 62 60 54 51 48 42 39 39 36 35 34 33 33 33 32 32 32 32
58 59 58 58 58 57 57 57 57 57 57 56 57 57 57 57 58 59 60 61 62 59 57 57 58 58 55 52 50 48 49 48 45 42 41 40 40 41 42 43 44 44 42 42 45 51 50 45 44 47 47 47 47 47 44 42 46 50 48 46 48 50 52 54 55 57 59 59 57 59 62 59 53 49 47 42 40 41 41 39 36 35 35 34 33 32 32 33
60 61 60 59 59 59 59 59 59 58 58 57 57 56 56 56 56 58 59 61 63 60 59 60 58 55 52 50 49 49 51 49 46 44 43 41 39 40 43 43 43 42 42 43 47 52 49 43 44 47 47 48 49 49 45 42 48 53 50 46 46 49 51 52 54 56 59 60 59 60 64 62 55 50 47 45 43 43 44 41 36 35 36 36 35 34 33 32
61 62 62 61 61 60 60 60 59 59 58 58 58 57 56 56 56 57 57 60 62 61 62 63 59 54 51 50 51 51 52 50 48 45 43 42 41 41 43 43 41 41 41 44 48 50 47 44 45 46 47 50 52 50 46 44 50 55 52 49 49 49 50 52 53 56 57 59 61 62 65 64 58 53 51 49 47 45 44 41 36 35 36 36 35 34 32 31
59 60 60 60 60 59 59 59 58 57 57 57 57 57 57 56 56 56 56 60 62 61 63 63 60 57 54 52 52 51 51 50 50 48 45 44 44 43 43 42 41 41 42 45 48 47 46 46 48 48 50 52 51 48 47 48 51 53 53 54 54 53 53 53 53 55 57 59 63 64 63 63 60 58 58 56 52 47 44 42 37 34 34 36 35 33 33 33
57 58 58 58 58 57 57 56 56 56 55 56 56 57 56 56 57 55 56 61 63 62 62 62 61 61 59 56 54 53 52 51 51 50 48 47 46 46 45 43 42 43 42 45 47 47 47 48 49 51 52 50 49 48 49 50 51 52 54 55 56 55 55 55 55 57 58 61 64 64 61 61 61 60 60 60 56 50 46 45 42 38 34 36 38 36 34 35
56 57 57 57 56 55 55 54 55 55 55 56 57 58 57 57 57 55 59 63 63 63 62 61 63 64 62 60 58 56 55 53 53 52 51 50 50 49 48 47 45 45 44 46 47 46 46 49 51 52 51 50 50 49 50 50 50 50 51 53 55 57 57 58 59 59 61 63 64 62 58 59 61 61 61 61 57 55 53 51 50 47 40 37 39 39 36 34
57 57 58 57 56 55 54 53 53 53 54 55 56 58 58 59 58 59 63 63 61 62 61 62 64 64 64 64 62 60 57 56 55 55 54 54 53 52 51 49 48 48 48 48 48 47 48 50 50 50 51 52 52 52 51 51 49 48 48 50 53 55 57 60 62 62 64 64 62 59 57 58 62 64 65 63 58 58 58 57 56 53 48 43 41 41 40 37
58 58 59 59 59 58 57 56 54 53 53 53 53 53 54 57 60 62 64 61 61 62 61 62 65 65 65 65 63 62 60 59 58 57 57 56 55 54 53 52 51 51 51 50 51 51 51 51 51 51 51 50 51 52 51 51 49 48 49 50 51 53 57 61 63 63 64 64 61 59 59 62 66 66 65 62 58 59 60 59 57 54 53 51 47 46 48 44
61 61 61 61 60 60 59 59 58 57 55 54 55 54 54 58 62 62 62 59 60 63 63 65 67 66 66 64 63 62 62 61 60 60 60 59 59 57 57 56 55 55 56 54 54 54 54 53 53 55 53 51 52 52 51 50 50 51 52 52 51 54 58 62 62 63 65 65 62 61 63 67 68 66 64 61 57 58 60 58 57 55 55 57 55 52 53 52
63 63 63 62 61 59 59 59 58 56 55 54 55 55 57 62 65 62 60 59 61 63 64 65 66 67 67 66 65 64 64 63 63 62 62 62 62 61 60 60 58 58 58 58 58 57 57 56 55 56 56 55 55 55 53 52 52 54 54 54 55 58 60 59 59 63 66 67 65 66 68 69 68 67 67 65 61 61 60 58 56 57 57 58 59 55 54 54
66 66 65 64 63 61 60 61 61 58 55 53 53 54 57 62 64 61 59 60 61 63 63 63 64 66 67 68 68 67 67 66 66 65 65 65 65 64 64 63 61 60 58 59 60 59 61 62 60 58 58 57 56 56 55 55 56 56 56 58 60 59 57 57 59 61 64 67 69 71 72 70 68 68 68 68 67 65 62 59 57 58 58 59 60 58 55 53
68 69 68 67 66 64 63 65 67 65 63 58 56 58 60 61 62 61 61 61 60 61 62 63 64 65 66 67 68 68 68 68 68 67 67 67 67 67 66 65 63 62 60 60 60 59 62 65 63 62 62 59 57 57 56 57 58 59 59 60 60 57 56 59 62 61 62 67 71 72 74 73 70 70 68 68 69 66 63 61 60 61 61 60 59 58 55 54
71 71 71 70 69 68 68 68 69 70 71 67 65 67 66 64 64 64 65 64 63 63 63 62 63 65 66 67 66 66 66 67 68 69 69 69 69 69 68 67 66 66 64 63 61 61 63 65 65 66 66 64 61 59 58 58 60 61 61 59 58 58 59 60 63 63 62 67 70 70 72 73 71 71 69 68 68 66 64 63 63 64 65 62 59 55 54 56
71 72 72 70 70 71 71 71 71 71 73 74 75 76 75 72 70 69 69 69 70 69 67 65 65 65 66 66 66 66 66 67 69 71 72 72 73 73 73 72 72 71 69 67 67 67 66 66 67 68 68 68 64 62 62 62 61 60 59 58 57 59 61 60 63 65 65 68 69 69 70 72 72 69 68 68 67 65 64 63 63 63 64 63 61 55 51 54
71 72 71 70 70 70 71 72 73 72 74 77 78 78 77 76 75 75 74 73 73 73 71 68 66 63 62 63 64 65 65 66 69 70 69 71 74 75 76 76 76 74 71 69 68 67 65 63 63 62 63 64 63 63 64 60 57 56 56 56 57 59 61 63 66 68 68 70 71 70 71 71 68 66 66 67 67 66 65 64 63 63 62 62 63 59 52 52
73 73 73 71 69 69 70 71 73 75 76 78 77 77 76 76 76 76 76 76 75 75 75 73 70 67 65 65 65 66 65 64 65 64 63 64 66 67 68 68 69 68 67 66 63 61 60 58 57 57 56 59 63 64 61 54 51 52 54 55 55 57 59 62 66 66 66 69 71 73 75 71 63 63 66 66 66 67 65 63 62 62 61 60 61 60 56 55
73 74 73 71 70 69 69 70 72 74 76 76 76 75 75 74 74 74 75 77 77 77 77 76 75 74 73 71 70 70 70 71 70 69 67 64 63 63 60 57 59 60 61 61 59 58 60 61 63 62 58 59 59 56 53 52 52 53 55 55 53 54 55 58 62 62 61 65 67 71 78 72 58 57 63 64 64 65 63 60 59 57 56 55 56 56 55 57
73 73 72 70 70 70 70 72 73 73 75 76 74 73 73 72 71 70 72 75 77 78 78 78 77 76 76 75 74 73 75 78 78 79 80 76 74 74 69 65 67 68 67 67 65 65 69 74 79 77 70 68 64 58 56 56 55 55 58 57 55 56 58 60 63 61 59 64 66 68 74 69 55 53 59 61 62 64 61 58 57 55 52 52 53 55 55 55
74 74 72 72 71 71 72 73 74 74 75 74 72 71 72 71 70 69 69 72 75 77 78 78 78 78 77 77 77 76 77 79 81 82 83 83 83 83 80 78 79 79 79 80 80 80 83 87 90 88 85 84 81 75 71 67 65 66 65 62 61 64 65 66 65 61 60 64 65 64 69 66 55 49 50 52 57 61 59 55 55 55 54 53 54 58 61 60
76 75 74 74 73 73 74 75 75 74 74 72 71 71 72 72 72 70 69 70 73 75 76 77 78 78 78 78 78 78 79 81 84 83 81 83 84 82 81 81 81 81 83 85 86 88 90 91 91 90 90 91 90 89 85 79 78 79 76 74 75 76 75 74 71 67 67 68 65 67 73 70 57 46 43 45 49 52 52 53 55 55 56 59 61 61 63 62
77 76 75 75 75 75 75 75 74 75 75 74 74 73 72 73 72 70 70 71 72 74 76 76 76 77 78 78 79 80 79 80 83 84 82 82 82 80 78 78 78 80 82 83 86 88 89 90 88 86 85 86 88 89 86 84 85 86 85 84 83 81 79 78 75 71 72 71 69 73 78 76 66 57 51 46 45 47 49 51 57 60 61 63 64 62 62 63
76 76 76 77 78 78 78 76 75 75 75 74 75 75 74 74 73 70 71 72 72 74 76 77 77 77 78 78 79 80 80 80 81 83 83 82 81 79 77 77 78 79 79 81 84 82 81 82 82 79 79 80 81 81 79 79 81 82 81 81 80 77 74 73 74 75 77 79 79 81 82 83 79 74 68 59 54 56 56 57 63 67 66 65 64 63 64 63
76 75 75 76 78 79 79 79 78 77 75 75 76 77 76 76 75 74 74 74 73 73 74 76 76 77 78 78 79 80 80 80 81 82 83 82 81 79 78 78 78 78 78 80 82 79 76 78 78 76 76 77 77 77 75 75 75 74 75 75 75 75 72 70 73 75 76 79 82 82 81 82 80 77 76 73 70 70 70 69 70 68 66 66 66 67 67 63
75 75 75 76 77 76 77 77 77 77 76 74 75 76 76 77 77 76 76 76 75 74 75 77 76 75 75 74 76 78 78 78 78 79 79 78 78 78 79 79 78 79 80 81 83 82 79 77 76 75 75 75 75 75 73 71 69 67 66 67 68 69 68 67 69 68 69 74 78 76 74 74 73 70 71 73 74 75 74 72 69 66 65 65 65 66 65 62
74 74 74 75 75 74 74 75 75 75 74 72 73 74 75 75 75 73 73 75 76 76 76 76 75 74 72 70 71 73 72 71 72 72 73 74 74 75 76 75 75 75 75 77 80 80 78 78 77 77 77 74 72 73 71 68 65 63 61 61 60 58 58 60 64 64 65 70 71 69 69 71 69 66 65 64 65 65 65 64 66 67 66 63 61 61 62 61
72 72 72 73 73 72 72 73 73 73 73 73 73 73 72 72 72 72 72 73 73 74 74 74 75 75 72 69 70 71 70 68 68 68 69 70 71 73 73 72 71 71 72 74 75 75 74 75 76 76 76 75 73 73 71 69 69 68 66 64 60 59 61 64 65 62 62 65 66 65 69 71 66 61 60 58 57 58 59 61 65 67 65 61 61 64 65 64
70 70 70 71 71 70 70 72 72 72 73 72 72 73 72 71 72 73 73 72 72 72 72 72 74 75 73 70 70 72 72 73 72 72 71 71 72 74 73 69 65 64 66 67 68 71 71 73 74 74 75 76 75 74 73 71 71 72 70 68 66 67 69 68 65 61 61 64 65 66 70 71 64 58 58 58 57 58 58 57 58 60 61 62 65 68 68 67
69 70 70 71 71 70 70 71 71 72 72 70 71 73 72 71 72 72 73 73 72 72 72 72 73 74 74 73 72 73 75 76 76 76 76 76 76 76 75 69 63 61 60 57 58 60 59 62 69 71 71 73 74 75 74 71 72 75 73 69 68 70 72 71 70 70 68 67 67 68 70 69 64 62 63 62 61 60 58 57 58 62 65 68 70 72 72 72
Wind_Direction
253 254 256 257 259 260 262 263 265 266 268 269 270 271 273 274 275 277 278 278 279 279 280 279 278 277 278 280 283 286 289 291 292 295 298 298 298 300 300 301 301 302 302 301 302 302 303 303 303 304 303 303 304 304 303 303 303 304 304 304 304 305 306 306 306 306 306 307 308 308 308 307 307 311 312 312 315 314 314 320 320 314 317 322 317 312 313 315
253 254 256 257 258 260 261 263 264 266 267 268 269 271 272 273 274 275 276 276 277 277 277 276 277 278 279 281 284 287 290 291 291 293 295 295 296 297 297 298 298 298 298 298 299 300 301 301 301 301 301 301 301 301 300 300 300 300 301 300 299 301 301 300 301 301 301 301 301 301 300 301 303 307 308 307 311 309 307 313 313 310 314 320 315 310 310 310
254 255 256 257 258 259 261 262 264 265 267 268 270 271 273 274 275 276 276 277 277 276 275 275 276 278 280 282 284 288 290 291 291 292 294 294 295 296 295 296 297 297 297 297 297 298 298 298 298 298 298 298 298 298 297 297 297 298 299 297 296 297 297 297 298 297 297 297 298 297 295 296 299 302 302 304 308 303 300 307 308 304 308 314 312 307 306 305
256 257 258 259 259 260 261 262 264 265 266 268 269 271 273 273 275 276 277 277 277 277 276 276 276 278 280 282 284 287 290 290 290 291 292 293 294 295 295 296 296 296 296 296 296 296 296 296 296 295 295 295 296 296 294 294 295 298 297 294 294 295 295 295 294 294 294 294 295 294 294 294 294 297 297 300 304 296 295 303 302 298 301 304 306 304 302 300
258 259 260 261 262 262 263 264 265 266 267 268 269 270 271 272 273 274 275 276 276 277 276 275 276 278 279 281 283 286 288 288 288 289 290 291 293 293 294 295 295 295 295 295 296 295 295 295 294 292 293 293 294 293 292 293 295 296 295 292 292 293 294 294 293 293 293 292 291 290 291 292 292 293 292 296 298 291 293 298 297 294 295 297 299 299 297 295
260 260 261 262 263 264 264 265 266 267 267 268 269 270 270 271 271 272 273 274 274 275 275 275 275 276 277 279 281 284 286 286 286 287 288 290 291 292 293 293 294 294 295 295 295 295 295 294 293 291 291 291 291 291 290 291 294 294 292 291 291 293 294 292 292 293 292 290 289 288 290 290 290 289 290 294 290 285 290 293 292 290 291 294 294 293 291 291
260 261 262 263 263 264 265 266 266 267 268 268 269 270 270 271 271 271 272 272 273 273 274 274 274 275 276 277 279 282 285 285 285 285 287 288 290 290 291 292 292 293 294 294 294 294 294 294 292 290 291 291 289 290 289 290 291 292 290 289 290 292 292 291 291 292 290 288 286 286 288 288 286 285 290 292 283 282 286 288 287 286 288 291 290 288 287 287
261 262 263 264 264 265 265 266 267 267 268 269 269 269 270 271 271 271 271 272 272 272 273 273 273 274 274 276 277 280 283 282 282 284 285 286 287 288 289 290 291 292 292 293 294 294 294 293 291 291 292 290 289 290 289 288 289 290 289 287 288 290 290 291 291 290 287 285 284 284 285 283 281 283 289 287 280 280 282 283 284 283 284 286 285 285 285 286
261 262 263 264 265 266 266 267 267 268 268 269 269 269 270 270 271 271 271 271 271 272 272 272 273 273 274 275 275 280 282 279 280 283 284 285 285 285 286 288 290 291 292 294 294 295 294 293 292 292 291 290 290 290 288 288 289 290 288 286 288 288 288 290 290 289 285 283 283 283 282 280 280 283 288 284 279 279 280 282 282 282 282 280 280 282 283 284
261 262 262 263 264 265 266 266 267 268 268 269 270 270 270 270 271 271 271 271 271 272 272 272 273 273 274 274 276 281 280 278 281 283 283 284 284 284 285 286 289 291 292 294 294 294 294 293 293 293 292 291 291 290 288 289 289 289 287 287 288 286 287 290 291 287 284 284 285 282 280 278 280 284 286 279 277 279 281 281 281 281 280 277 276 277 279 280
260 261 262 263 264 264 265 266 267 267 268 269 270 270 271 271 271 272 272 272 272 272 273 273 273 274 274 275 279 280 277 278 282 282 282 282 282 283 285 286 288 290 291 293 293 293 294 294 294 293 293 292 292 291 289 290 290 289 288 288 287 285 287 292 290 285 283 285 285 282 280 277 279 282 282 275 274 277 279 279 280 279 278 277 278 277 276 276
261 262 262 263 264 265 265 266 267 267 268 269 270 270 271 271 272 273 273 274 274 274 275 275 275 275 275 277 281 280 278 280 281 281 281 280 281 283 285 287 288 289 290 291 291 292 293 293 293 293 292 292 294 292 291 291 290 291 290 287 286 286 289 295 287 282 285 287 286 283 281 279 279 281 279 274 273 274 274 275 277 278 279 280 281 279 277 275
262 262 263 264 264 265 265 266 267 268 268 269 270 271 272 272 272 273 274 274 274 275 275 275 275 276 276 278 281 280 280 281 280 280 280 280 282 284 285 287 288 288 289 290 291 292 292 292 292 292 292 292 293 292 293 293 291 292 289 288 290 287 287 288 280 282 288 291 290 285 283 284 282 279 277 273 273 275 274 274 274 275 278 279 281 281 279 277
261 262 263 263 264 265 265 266 267 267 268 269 270 270 271 271 272 272 273 273 274 274 274 274 275 275 276 278 279 279 279 280 279 278 279 281 284 285 286 287 287 288 289 289 290 290 290 290 290 290 291 291 292 293 295 294 292 293 290 291 294 287 281 274 275 285 292 291 290 286 286 290 287 280 276 272 273 274 275 276 275 275 276 277 278 278 279 278
261 262 262 263 264 264 265 266 267 267 268 268 269 270 270 270 271 271 271 272 273 273 274 274 274 275 275 277 278 277 276 277 277 277 279 281 282 284 286 286 287 287 288 288 288 288 288 287 287 288 289 290 291 294 295 293 293 296 293 292 290 284 281 277 278 290 293 289 288 287 287 290 291 283 272 270 272 274 274 275 275 275 276 276 276 276 277 277
261 262 262 263 263 264 265 266 267 267 268 268 269 269 270 270 270 271 271 272 272 273 273 274 274 275 275 276 276 275 276 276 276 277 279 280 281 283 284 284 285 286 286 286 286 286 285 284 284 284 285 287 291 294 294 291 294 297 291 287 284 283 285 285 286 290 290 288 286 286 286 288 292 288 273 268 270 272 273 274 275 275 275 276 276 276 276 275
262 263 263 263 263 264 265 265 266 267 268 268 269 269 270 270 270 271 271 272 272 273 273 274 275 275 275 277 276 275 275 275 275 277 278 279 281 282 282 283 284 284 284 284 284 285 284 283 282 282 282 285 291 293 290 289 293 291 284 283 283 284 287 289 292 291 287 285 284 283 284 286 291 289 279 273 270 270 271 273 274 274 274 274 273 273 273 272
262 262 262 263 263 263 264 264 265 266 267 268 268 269 270 270 270 271 271 272 272 272 273 273 274 274 275 276 276 275 274 274 275 277 278 280 281 281 282 283 283 283 282 282 283 283 282 281 280 279 281 287 292 289 284 285 288 284 281 282 284 285 286 288 292 294 288 283 281 281 283 287 287 284 281 278 275 273 272 272 272 272 272 271 271 271 272 272
261 262 262 262 262 262 263 264 265 265 266 267 268 268 269 270 271 271 271 271 271 272 272 273 273 274 275 276 276 276 275 275 276 276 278 279 281 281 282 282 282 281 281 282 283 280 279 278 277 278 284 293 292 283 279 281 282 281 281 282 282 284 284 286 293 294 288 284 281 282 284 285 283 282 282 282 279 277 278 278 276 275 274 273 272 272 274 274
262 262 262 263 263 264 265 265 266 266 266 267 268 268 268 268 269 270 270 271 271 271 271 272 272 272 274 276 276 276 276 276 276 277 278 279 279 278 279 280 279 279 280 281 279 277 277 276 276 281 289 291 284 278 278 279 279 280 280 280 281 282 282 287 291 289 288 286 283 283 283 282 281 282 283 283 280 279 284 285 281 279 277 276 276 275 275 274
263 263 264 264 265 266 266 267 267 267 267 268 268 268 268 269 269 269 269 269 269 270 270 271 272 273 274 275 275 277 277 277 277 278 278 277 276 276 277 277 276 277 278 277 275 276 276 275 278 284 287 284 279 279 279 279 279 278 278 279 280 281 283 286 288 288 287 283 282 283 282 281 282 282 281 282 282 282 284 282 280 280 279 279 279 277 274 272
263 264 264 265 265 266 266 267 267 267 268 267 267 267 268 268 269 269 269 268 268 268 270 271 273 274 274 275 277 278 278 279 280 279 276 274 274 275 275 274 274 275 274 273 274 276 275 275 279 284 282 280 280 281 280 279 279 278 279 279 279 282 285 284 285 286 282 279 281 282 282 282 282 281 280 281 283 284 282 279 278 279 280 281 280 276 273 272
263 263 264 265 265 266 266 267 267 267 267 267 267 267 267 267 268 268 269 269 268 266 268 271 272 273 274 276 278 278 279 281 281 278 277 276 275 274 272 272 273 272 271 273 275 275 274 276 280 280 278 278 278 279 280 279 278 278 279 280 280 284 286 283 282 282 279 278 281 282 282 281 280 281 281 282 283 283 282 280 279 277 278 279 278 276 274 271
263 263 264 265 265 265 266 266 267 267 267 267 267 266 266 266 267 267 268 269 269 267 267 269 270 272 274 276 277 279 280 280 278 278 278 276 275 273 272 272 271 270 272 275 275 272 272 276 279 277 276 276 277 277 278 277 277 277 278 280 281 283 283 281 282 283 280 279 280 283 282 279 279 280 280 282 282 282 282 280 278 278 280 279 277 276 275 271
264 264 265 265 266 266 266 266 267 267 267 267 267 267 267 267 267 268 268 269 270 269 268 267 267 269 272 274 276 278 278 278 279 279 277 274 273 272 271 271 270 272 274 274 272 271 271 275 277 277 276 276 276 274 275 277 277 276 276 278 279 279 280 280 282 282 281 280 281 282 281 280 280 280 279 281 281 280 280 277 277 279 281 282 280 276 272 270
263 264 264 265 266 266 266 267 266 267 267 267 267 268 268 268 268 268 269 270 270 271 270 268 266 266 268 271 273 275 276 277 279 277 275 273 272 271 271 271 272 273 273 272 271 271 273 275 276 276 276 276 274 273 275 278 277 275 275 277 277 277 278 280 281 281 281 283 283 282 280 281 282 282 282 284 282 278 277 276 278 278 280 282 281 276 272 270
264 264 263 264 265 266 266 267 267 267 268 268 267 268 268 268 268 269 270 270 270 271 271 270 270 269 268 268 269 271 273 274 275 273 271 272 272 271 271 271 272 272 270 269 270 273 276 275 274 274 274 273 274 276 278 277 275 275 278 278 277 277 277 277 278 279 280 281 281 280 281 283 286 289 290 289 284 279 279 281 282 280 279 279 276 275 275 273
264 264 263 263 264 265 266 267 267 267 268 268 268 268 268 268 268 269 270 270 269 270 271 273 275 274 273 271 270 270 270 271 271 270 269 270 270 270 270 270 270 269 269 268 271 275 275 273 273 272 271 272 274 277 277 275 274 276 277 277 277 277 276 276 276 277 278 278 278 278 280 283 288 292 292 289 285 283 285 287 285 282 281 279 275 274 276 276
264 264 263 263 263 264 264 266 266 267 268 269 269 268 268 268 268 269 269 268 268 269 271 274 277 277 276 275 273 271 270 268 268 269 269 268 267 267 267 267 267 267 267 268 271 274 273 274 274 273 273 274 275 275 274 273 274 275 275 275 276 276 276 276 275 275 274 274 275 277 281 285 288 289 288 285 286 288 290 290 288 285 283 280 278 277 277 277
266 265 263 263 263 263 264 265 266 268 269 270 270 269 269 268 268 269 266 264 266 269 272 275 276 277 278 277 276 273 271 268 267 267 268 268 267 266 266 267 269 269 268 268 269 271 273 273 273 274 276 276 274 273 273 273 274 275 275 276 275 275 275 275 274 273 272 272 274 277 281 284 285 284 283 283 288 292 292 293 292 291 288 284 280 279 276 274
267 266 264 263 262 262 264 266 269 270 272 273 273 271 271 269 267 266 265 266 269 270 271 274 275 276 277 277 276 275 273 271 269 268 268 267 267 267 267 269 272 273 271 271 272 272 272 272 273 274 274 273 273 274 274 275 275 276 275 274 274 274 273 272 271 271 271 272 275 277 279 279 277 277 279 283 287 290 292 293 292 292 293 289 284 280 277 272
266 266 265 263 262 262 263 266 268 269 271 272 272 270 270 269 267 266 267 269 271 271 272 273 274 275 275 275 276 276 274 273 272 271 270 269 268 267 268 269 271 273 272 272 273 272 270 271 273 273 273 274 275 274 274 274 274 274 273 273 272 272 272 271 271 271 271 274 277 278 278 275 273 273 276 280 284 287 288 289 290 292 293 291 287 283 281 279
266 266 265 265 265 265 266 268 270 271 271 270 268 267 265 265 268 270 271 270 271 272 274 274 274 274 274 274 275 275 274 274 274 274 274 272 271 270 270 272 274 276 276 274 273 271 268 268 270 273 275 275 275 274 273 272 271 270 270 270 269 270 270 270 271 273 275 277 278 277 275 274 274 276 279 280 281 282 283 285 288 290 290 289 288 286 287 287
266 266 266 266 266 266 267 268 270 271 270 268 265 263 260 263 270 273 273 272 271 270 271 271 272 272 272 273 274 275 276 276 276 276 275 274 273 273 275 277 279 280 281 280 278 277 273 270 269 271 273 272 273 274 274 272 271 270 270 268 267 268 269 270 272 274 275 276 275 273 272 273 277 280 281 282 281 279 281 283 286 287 287 287 288 287 288 291
265 266 266 266 266 265 264 263 263 263 263 262 261 258 257 264 270 271 271 270 269 268 267 267 267 267 269 271 272 274 275 276 275 275 275 274 275 276 277 280 281 282 282 282 282 282 279 277 274 272 271 270 270 270 271 272 272 271 270 268 268 269 269 270 270 271 272 273 272 272 271 273 276 278 279 282 282 282 283 284 285 285 285 284 285 286 288 291
265 265 265 266 266 266 264 262 262 263 264 263 262 259 260 264 267 267 268 268 268 268 266 265 264 265 266 268 269 271 272 273 274 274 274 274 275 275 277 279 281 282 282 281 282 281 280 280 279 277 276 275 272 271 269 269 270 270 269 269 271 271 269 269 269 269 269 269 269 270 272 273 274 275 277 279 280 283 284 285 285 283 282 281 282 286 287 289
267 267 266 265 265 265 264 263 263 264 265 266 266 265 265 265 266 267 268 269 269 268 267 266 265 265 266 267 268 270 271 272 273 273 273 274 274 274 275 277 279 279 280 281 281 280 280 280 280 280 280 279 277 274 270 268 267 267 266 268 270 269 269 269 270 269 267 266 267 269 271 273 273 274 277 278 279 282 283 283 284 283 283 283 284 286 288 287
269 269 268 267 267 267 267 266 265 264 264 265 266 266 267 267 267 269 270 270 270 270 270 269 268 267 267 267 268 269 271 272 273 273 274 274 274 275 275 276 277 277 279 279 281 282 282 282 282 280 280 280 277 274 273 271 269 267 267 267 266 267 268 268 268 269 268 268 268 268 267 268 270 273 276 278 279 280 281 282 284 285 287 289 289 289 289 288
269 269 269 269 269 268 269 269 269 268 266 265 265 265 266 266 266 268 269 271 272 272 272 272 269 267 265 266 267 268 271 273 274 274 274 275 275 276 277 277 277 277 279 280 282 284 284 283 281 280 279 278 275 275 275 273 269 267 267 266 265 265 266 267 267 268 268 268 269 268 265 264 268 271 272 273 275 277 278 280 282 284 286 288 290 291 290 289
269 269 270 270 269 268 267 267 267 267 267 268 268 268 268 266 265 266 268 271 272 272 272 272 270 266 264 263 264 266 269 271 271 269 268 269 271 273 274 276 278 279 281 281 281 281 278 276 274 273 271 268 271 276 275 270 265 262 261 261 262 264 265 267 267 267 268 269 270 269 267 264 266 268 269 271 273 274 277 279 280 283 285 287 290 293 294 291
269 269 269 270 269 268 267 265 265 266 266 267 269 270 269 267 266 266 268 270 271 272 272 272 271 269 268 267 265 266 266 266 266 266 265 265 267 269 270 272 275 277 277 276 274 273 272 271 271 271 267 264 267 270 267 263 260 258 258 258 259 263 267 270 270 270 273 275 275 274 272 268 264 265 268 270 271 272 273 276 278 281 286 290 292 294 295 293
269 270 270 269 268 268 267 265 265 266 267 268 270 271 269 268 268 267 266 266 268 270 271 272 272 272 272 272 271 269 267 265 265 265 266 267 267 268 269 270 272 272 271 270 269 269 271 272 274 273 270 269 268 265 261 261 260 258 258 258 260 265 270 274 277 279 280 279 279 277 273 268 263 262 266 267 267 268 270 272 276 278 283 289 292 293 293 292
269 270 270 269 268 268 267 266 267 268 269 270 271 270 269 269 269 268 267 266 266 267 269 270 271 272 272 272 272 270 269 268 268 267 268 268 268 268 270 271 272 272 271 270 270 270 272 275 276 276 275 275 274 272 268 266 264 263 264 265 268 271 275 279 281 281 279 277 276 272 268 266 263 259 258 258 259 263 266 271 276 278 281 286 288 290 290 290
269 269 269 269 268 268 267 268 269 270 270 270 269 268 268 268 268 269 269 268 267 267 267 268 269 270 270 271 271 271 271 271 271 271 270 270 270 270 270 271 272 272 272 272 273 273 274 275 277 278 279 278 277 276 275 273 272 273 273 273 273 275 277 278 279 278 275 275 274 269 268 271 269 260 252 248 250 256 261 269 276 278 281 284 286 288 289 290
268 268 268 268 268 267 268 269 270 269 269 269 269 268 268 268 269 269 269 268 267 267 268 268 268 268 268 269 269 270 270 270 272 272 271 271 271 271 270 270 270 271 271 273 274 275 276 277 277 279 279 278 278 277 276 276 276 277 277 276 276 276 277 277 277 275 274 275 274 270 273 279 279 271 263 253 251 257 260 266 274 278 279 282 285 288 289 290
267 267 267 268 268 267 267 269 269 270 270 270 270 269 269 269 270 269 267 267 267 267 268 268 268 268 268 268 269 269 269 269 270 271 271 271 271 271 270 269 269 269 270 272 274 275 276 276 277 278 279 279 279 278 277 277 277 278 278 278 278 278 277 275 272 271 274 276 275 274 278 282 282 281 276 267 263 266 267 269 274 277 279 281 283 286 287 289
265 266 266 266 267 267 268 268 269 270 270 270 270 270 270 270 270 269 268 268 267 266 266 267 267 268 269 269 269 269 269 269 270 271 272 272 272 271 269 268 268 268 269 270 271 271 272 274 275 275 276 277 279 279 279 278 277 278 279 279 279 280 279 275 270 271 274 273 272 276 279 280 281 283 281 277 273 272 273 273 275 278 280 281 283 284 285 285
264 265 265 265 266 266 267 268 268 269 270 271 271 271 270 270 270 270 270 269 268 267 267 268 268 268 269 269 269 269 270 270 270 270 271 272 271 270 269 268 268 268 267 268 268 269 270 270 271 271 272 274 275 277 278 277 277 277 277 277 278 278 278 275 274 275 273 268 269 275 276 276 279 281 282 283 282 278 276 277 277 279 280 280 281 281 280 279
264 264 264 265 265 266 267 267 267 268 269 270 271 271 272 272 271 271 271 270 270 269 269 270 270 269 269 268 269 270 270 269 269 269 269 270 270 270 270 269 268 267 267 267 267 268 268 269 270 271 272 272 272 273 274 274 274 274 273 274 276 275 274 273 274 275 272 269 272 275 274 275 278 280 283 286 284 281 280 279 278 278 278 277 276 274 272 271
264 264 264 265 265 266 266 267 267 268 268 269 270 271 271 271 271 271 272 272 272 271 270 271 271 271 270 269 269 269 269 268 268 268 268 269 270 271 272 272 272 271 269 269 269 268 268 270 270 271 273 272 271 272 272 271 271 270 270 270 270 271 273 273 273 273 272 273 275 277 276 276 277 281 284 284 281 279 278 277 276 276 275 273 270 268 267 264
265 264 264 265 265 265 266 267 267 268 268 268 270 270 270 270 270 270 270 271 271 271 271 271 271 271 271 269 269 269 269 268 268 268 268 268 269 270 271 273 274 274 272 272 272 272 271 271 270 271 273 273 272 272 272 273 273 272 270 270 270 271 272 272 271 270 270 272 274 274 274 275 278 280 279 276 275 274 274 273 272 271 268 265 264 264 263 262
264 265 265 264 264 264 265 266 266 267 268 268 269 269 270 270 270 270 270 269 269 271 271 271 271 271 271 270 269 268 268 268 268 268 268 268 268 269 269 268 266 265 265 265 266 268 269 269 269 270 273 274 274 274 275 275 275 273 273 274 275 273 271 269 268 267 268 270 272 273 274 276 279 278 275 273 272 272 272 270 267 264 262 262 263 263 263 262
Height
5890 5890 5890 5891 5891 5891 5891 5892 5892 5892 5892 5892 5892 5893 5893 5893 5893 5892 5892 5892 5892 5892 5892 5892 5892 5892 5892 5892 5892 5892 5892 5891 5890 5891 5891 5890 5889 5889 5889 5888 5888 5887 5887 5886 5886 5886 5885 5884 5884 5883 5882 5882 5881 5880 5880 5879 5878 5877 5876 5875 5874 5874 5873 5872 5872 5871 5870 5869 5868 5867 5866 5866 5865 5864 5864 5863 5862 5862 5861 5860 5859 5858 5857 5856 5855 5854 5853 5853
5888 5888 5888 5889 5889 5889 5889 5890 5890 5890 5890 5890 5890 5890 5891 5891 5891 5891 5891 5891 5891 5891 5891 5890 5890 5890 5890 5890 5890 5890 5890 5889 5889 5889 5889 5888 5887 5887 5887 5886 5886 5886 5885 5885 5884 5884 5883 5883 5882 5881 5880 5880 5879 5878 5877 5877 5876 5876 5875 5873 5872 5872 5871 5870 5870 5869 5868 5867 5867 5866 5865 5864 5863 5863 5862 5861 5861 5860 5859 5859 5858 5857 5856 5855 5854 5853 5852 5851
5886 5886 5886 5886 5887 5887 5887 5887 5888 5888 5888 5888 5888 5888 5889 5889 5889 5889 5889 5889 5889 5889 5889 5889 5889 5889 5888 5888 5888 5888 5888 5887 5886 5886 5886 5886 5885 5885 5884 5884 5884 5883 5883 5882 5882 5881 5881 5880 5880 5879 5878 5877 5877 5876 5875 5874 5874 5874 5873 5871 5870 5870 5869 5868 5867 5867 5865 5865 5864 5864 5863 5863 5861 5861 5860 5859 5859 5858 5857 5857 5856 5855 5854 5854 5853 5852 5851 5850
5883 5884 5884 5884 5885 5885 5885 5885 5886 5886 5886 5886 5886 5886 5886 5886 5887 5887 5887 5887 5887 5887 5887 5887 5887 5886 5886 5886 5886 5886 5885 5884 5884 5884 5884 5883 5883 5882 5882 5881 5881 5881 5880 5879 5879 5879 5878 5878 5877 5876 5876 5875 5874 5874 5872 5871 5872 5872 5870 5869 5867 5867 5867 5865 5864 5864 5863 5862 5861 5861 5861 5860 5859 5859 5858 5857 5857 5855 5854 5855 5855 5853 5853 5852 5851 5850 5849 5849
5881 5881 5881 5882 5882 5882 5883 5883 5883 5883 5884 5884 5884 5884 5884 5884 5884 5884 5884 5884 5884 5884 5884 5884 5884 5884 5884 5884 5884 5884 5883 5882 5881 5882 5881 5881 5880 5880 5879 5879 5878 5878 5877 5877 5876 5876 5875 5875 5874 5874 5873 5872 5871 5871 5869 5867 5868 5869 5867 5865 5864 5864 5865 5863 5861 5861 5860 5859 5858 5858 5858 5857 5857 5856 5855 5855 5855 5852 5851 5852 5852 5851 5850 5850 5849 5848 5847 5847
5878 5878 5878 5879 5879 5880 5880 5880 5881 5881 5881 5881 5881 5881 5881 5881 5881 5881 5882 5881 5882 5881 5881 5881 5881 5881 5881 5881 5881 5881 5881 5879 5879 5879 5879 5878 5878 5877 5876 5876 5875 5875 5874 5874 5873 5872 5872 5871 5871 5870 5870 5869 5868 5868 5866 5864 5865 5866 5865 5862 5861 5861 5862 5861 5859 5858 5857 5856 5855 5854 5855 5855 5853 5853 5853 5853 5852 5850 5848 5849 5850 5849 5848 5848 5847 5846 5845 5845
5875 5875 5875 5876 5876 5876 5877 5877 5877 5878 5878 5878 5878 5878 5878 5878 5878 5879 5878 5878 5879 5878 5878 5878 5878 5878 5878 5879 5879 5879 5879 5876 5875 5876 5876 5875 5874 5873 5873 5872 5872 5872 5871 5870 5869 5869 5868 5867 5867 5866 5867 5866 5865 5864 5863 5862 5861 5862 5862 5859 5858 5857 5858 5858 5856 5855 5854 5853 5852 5851 5852 5852 5850 5850 5852 5851 5849 5847 5846 5846 5846 5846 5846 5845 5845 5844 5843 5842
5871 5871 5872 5872 5873 5873 5873 5873 5874 5874 5874 5874 5875 5875 5875 5875 5875 5875 5875 5875 5875 5875 5875 5874 5875 5875 5875 5875 5875 5877 5876 5873 5871 5873 5873 5872 5871 5870 5869 5869 5869 5869 5868 5867 5866 5865 5864 5863 5862 5861 5862 5862 5861 5861 5859 5858 5858 5858 5858 5857 5855 5854 5854 5854 5854 5853 5851 5850 5848 5847 5849 5848 5846 5847 5850 5848 5844 5844 5843 5843 5843 5843 5843 5842 5841 5841 5840 5839
5868 5868 5868 5869 5869 5869 5869 5870 5870 5870 5871 5871 5871 5871 5871 5871 5871 5871 5871 5871 5871 5871 5871 5870 5871 5870 5871 5872 5872 5874 5873 5868 5868 5870 5869 5868 5868 5867 5866 5866 5865 5865 5865 5864 5863 5862 5861 5859 5858 5857 5858 5858 5857 5857 5854 5853 5854 5854 5853 5853 5853 5851 5851 5850 5850 5849 5846 5846 5845 5843 5845 5844 5842 5844 5847 5845 5840 5840 5840 5840 5840 5839 5840 5840 5839 5838 5837 5837
5864 5864 5865 5865 5865 5866 5866 5866 5866 5867 5867 5867 5867 5867 5867 5868 5867 5867 5867 5867 5867 5867 5867 5866 5866 5866 5867 5867 5869 5872 5869 5865 5866 5866 5865 5864 5864 5863 5863 5863 5862 5862 5861 5861 5860 5859 5857 5856 5855 5853 5853 5854 5854 5853 5851 5849 5850 5850 5849 5849 5849 5848 5848 5848 5847 5845 5841 5841 5841 5838 5840 5841 5840 5841 5845 5841 5835 5836 5837 5837 5837 5836 5836 5836 5836 5836 5835 5834
5860 5860 5861 5861 5862 5862 5862 5862 5863 5863 5863 5863 5863 5863 5863 5864 5864 5863 5863 5863 5863 5863 5863 5862 5862 5862 5862 5863 5866 5868 5864 5862 5863 5862 5861 5861 5860 5860 5860 5860 5860 5859 5858 5858 5857 5855 5854 5852 5851 5850 5849 5849 5850 5849 5847 5846 5845 5845 5844 5844 5846 5844 5845 5846 5843 5840 5837 5837 5837 5833 5833 5838 5838 5838 5841 5838 5832 5832 5834 5833 5833 5832 5832 5831 5831 5832 5832 5832
5856 5857 5857 5858 5858 5858 5858 5859 5859 5860 5860 5860 5860 5860 5860 5860 5860 5860 5859 5859 5859 5859 5859 5858 5858 5857 5858 5860 5863 5862 5860 5860 5860 5858 5857 5856 5856 5857 5857 5857 5857 5856 5855 5855 5853 5852 5851 5849 5847 5846 5845 5844 5846 5845 5844 5843 5840 5840 5839 5838 5842 5840 5841 5844 5839 5835 5833 5832 5833 5828 5826 5833 5836 5835 5837 5833 5829 5829 5830 5830 5829 5828 5828 5827 5826 5827 5828 5828
5853 5853 5853 5854 5854 5855 5855 5855 5856 5856 5856 5856 5856 5856 5856 5857 5857 5856 5856 5855 5855 5856 5855 5854 5854 5853 5853 5857 5860 5858 5857 5857 5856 5854 5852 5852 5853 5854 5854 5853 5853 5852 5852 5851 5850 5848 5847 5845 5842 5841 5841 5840 5842 5841 5840 5839 5837 5837 5834 5832 5836 5835 5837 5841 5835 5831 5830 5827 5828 5823 5818 5827 5833 5832 5833 5829 5824 5824 5824 5826 5826 5825 5824 5823 5822 5821 5822 5822
5849 5849 5850 5850 5850 5851 5851 5851 5852 5852 5852 5853 5853 5852 5852 5852 5853 5853 5852 5851 5851 5851 5851 5850 5850 5849 5849 5854 5856 5854 5853 5852 5851 5850 5848 5849 5849 5849 5850 5850 5849 5849 5849 5848 5846 5845 5843 5841 5838 5836 5836 5836 5837 5837 5836 5835 5834 5834 5830 5829 5831 5827 5830 5836 5832 5829 5828 5824 5823 5818 5812 5819 5828 5830 5828 5824 5821 5820 5819 5821 5821 5821 5821 5820 5819 5817 5816 5817
5845 5845 5845 5846 5846 5846 5847 5847 5847 5848 5848 5848 5848 5848 5848 5847 5848 5848 5847 5847 5847 5846 5846 5845 5845 5844 5844 5849 5852 5850 5849 5848 5847 5846 5845 5846 5845 5846 5846 5846 5846 5845 5845 5844 5843 5841 5839 5837 5834 5832 5832 5832 5833 5833 5831 5830 5830 5831 5826 5824 5825 5820 5822 5829 5830 5828 5825 5821 5819 5814 5808 5811 5821 5826 5824 5820 5817 5816 5815 5816 5816 5816 5816 5816 5815 5814 5813 5812
5840 5841 5841 5841 5842 5842 5843 5843 5843 5843 5843 5844 5844 5843 5843 5842 5843 5843 5843 5843 5842 5842 5841 5840 5841 5840 5839 5844 5847 5845 5845 5844 5843 5842 5842 5842 5842 5842 5842 5842 5842 5841 5841 5840 5839 5837 5835 5832 5829 5828 5827 5828 5830 5830 5826 5823 5826 5828 5821 5817 5818 5816 5815 5820 5826 5827 5822 5817 5814 5810 5805 5805 5814 5820 5819 5817 5815 5812 5810 5812 5812 5811 5811 5811 5811 5810 5809 5808
5836 5836 5837 5837 5837 5837 5838 5838 5838 5838 5839 5839 5839 5839 5838 5837 5838 5838 5838 5838 5837 5837 5836 5836 5837 5835 5834 5839 5841 5841 5841 5839 5839 5838 5838 5838 5838 5839 5838 5838 5838 5837 5836 5835 5834 5833 5830 5827 5823 5822 5822 5825 5829 5827 5821 5818 5821 5822 5816 5811 5811 5812 5810 5812 5819 5823 5819 5812 5808 5805 5801 5801 5809 5813 5813 5813 5812 5808 5806 5808 5808 5808 5808 5807 5807 5806 5805 5804
5831 5832 5832 5832 5832 5833 5833 5833 5834 5834 5834 5834 5834 5835 5833 5832 5833 5833 5833 5833 5832 5832 5831 5831 5832 5829 5830 5835 5834 5836 5836 5835 5835 5835 5835 5835 5835 5834 5834 5834 5834 5832 5831 5830 5830 5828 5825 5822 5818 5816 5818 5823 5826 5823 5815 5814 5815 5814 5811 5808 5806 5807 5806 5806 5812 5816 5813 5807 5803 5800 5796 5797 5803 5806 5808 5809 5808 5804 5803 5805 5804 5804 5804 5803 5802 5800 5800 5799
5826 5827 5827 5827 5827 5828 5828 5829 5829 5829 5829 5829 5829 5830 5829 5828 5828 5827 5828 5828 5827 5827 5825 5826 5827 5824 5825 5829 5829 5829 5831 5830 5831 5831 5831 5831 5831 5830 5830 5829 5828 5827 5825 5826 5825 5822 5819 5816 5812 5811 5817 5822 5821 5816 5810 5810 5809 5806 5805 5803 5801 5801 5800 5802 5807 5809 5806 5799 5796 5796 5792 5792 5795 5799 5803 5804 5804 5801 5800 5801 5800 5799 5799 5798 5797 5796 5795 5794
5821 5822 5822 5822 5822 5823 5823 5824 5824 5824 5824 5825 5824 5824 5824 5823 5822 5822 5822 5822 5822 5822 5820 5820 5821 5820 5821 5823 5823 5823 5824 5825 5826 5827 5828 5827 5826 5825 5825 5824 5823 5821 5821 5821 5818 5815 5814 5809 5806 5810 5816 5817 5813 5809 5807 5806 5805 5802 5800 5797 5797 5795 5794 5799 5803 5803 5801 5790 5786 5789 5786 5785 5788 5793 5797 5798 5798 5798 5798 5797 5796 5795 5794 5793 5793 5792 5791 5789
5816 5817 5817 5817 5817 5818 5818 5818 5819 5819 5819 5820 5820 5819 5818 5817 5817 5816 5816 5816 5816 5816 5815 5815 5814 5815 5817 5816 5816 5817 5818 5819 5821 5823 5823 5822 5820 5819 5820 5819 5816 5815 5816 5814 5811 5810 5808 5802 5804 5810 5812 5808 5805 5805 5804 5802 5800 5797 5795 5792 5791 5791 5790 5794 5796 5797 5796 5783 5777 5781 5778 5777 5782 5785 5790 5792 5792 5794 5795 5793 5791 5791 5789 5788 5788 5787 5786 5784
5811 5811 5811 5812 5812 5812 5812 5813 5813 5813 5813 5814 5814 5814 5813 5812 5811 5810 5809 5809 5811 5811 5809 5810 5809 5808 5810 5810 5810 5812 5811 5814 5817 5817 5816 5815 5814 5814 5813 5811 5809 5809 5809 5807 5807 5806 5801 5797 5803 5807 5804 5802 5801 5801 5800 5797 5795 5792 5791 5788 5786 5788 5787 5787 5789 5791 5789 5777 5771 5774 5769 5768 5774 5777 5782 5787 5786 5788 5790 5788 5788 5786 5784 5784 5784 5783 5782 5781
5805 5806 5806 5806 5806 5806 5806 5807 5807 5807 5807 5807 5808 5808 5807 5806 5805 5804 5802 5800 5804 5807 5805 5805 5804 5801 5803 5804 5805 5806 5807 5810 5811 5810 5810 5809 5808 5808 5805 5804 5804 5802 5801 5802 5804 5800 5793 5795 5802 5801 5798 5797 5796 5796 5795 5792 5791 5788 5787 5785 5781 5785 5783 5778 5780 5783 5781 5773 5768 5768 5762 5758 5766 5769 5773 5781 5781 5781 5784 5783 5783 5782 5780 5780 5779 5778 5778 5777
5799 5800 5800 5800 5800 5800 5801 5801 5801 5801 5801 5801 5801 5801 5801 5800 5799 5798 5797 5793 5793 5799 5803 5802 5798 5795 5798 5799 5800 5801 5802 5803 5803 5804 5804 5802 5801 5800 5798 5799 5796 5795 5797 5799 5798 5792 5788 5793 5797 5795 5793 5792 5791 5791 5790 5787 5786 5784 5783 5782 5779 5780 5779 5774 5773 5773 5772 5769 5766 5764 5753 5747 5758 5764 5766 5774 5776 5775 5777 5777 5777 5777 5776 5776 5776 5775 5774 5773
5793 5794 5794 5794 5794 5794 5795 5794 5795 5795 5795 5795 5795 5795 5794 5794 5794 5792 5791 5788 5784 5790 5796 5794 5792 5792 5794 5795 5796 5797 5795 5796 5797 5799 5797 5796 5795 5793 5792 5792 5790 5791 5793 5793 5790 5784 5785 5791 5791 5788 5787 5787 5785 5784 5784 5784 5782 5780 5778 5779 5777 5775 5774 5771 5770 5767 5763 5762 5763 5761 5749 5739 5748 5757 5759 5767 5771 5769 5770 5771 5772 5773 5771 5771 5771 5771 5770 5768
5786 5787 5788 5788 5788 5788 5788 5788 5789 5789 5789 5789 5789 5789 5788 5788 5788 5787 5786 5782 5778 5781 5784 5783 5785 5789 5791 5792 5792 5791 5790 5790 5792 5791 5790 5789 5789 5787 5786 5785 5785 5787 5787 5786 5783 5778 5781 5787 5786 5783 5782 5780 5778 5778 5781 5781 5777 5773 5773 5775 5775 5772 5770 5768 5766 5763 5757 5755 5755 5754 5747 5736 5738 5748 5754 5760 5763 5762 5763 5765 5768 5769 5767 5766 5766 5765 5765 5765
5779 5780 5781 5781 5782 5782 5781 5781 5782 5782 5782 5782 5782 5783 5783 5782 5782 5782 5781 5777 5772 5772 5772 5772 5777 5783 5787 5788 5787 5786 5785 5785 5785 5784 5784 5783 5782 5781 5780 5780 5780 5781 5780 5779 5776 5774 5778 5781 5779 5777 5776 5773 5772 5774 5778 5776 5770 5768 5770 5770 5769 5768 5767 5764 5762 5759 5755 5753 5748 5744 5743 5737 5732 5738 5747 5751 5752 5753 5755 5760 5763 5764 5762 5761 5760 5760 5759 5760
5772 5773 5774 5775 5775 5775 5775 5775 5775 5775 5775 5775 5776 5776 5776 5776 5777 5777 5777 5772 5766 5765 5764 5765 5769 5773 5778 5780 5781 5781 5780 5779 5777 5777 5779 5778 5776 5775 5774 5774 5774 5773 5773 5771 5769 5771 5773 5773 5772 5771 5769 5768 5769 5770 5770 5768 5764 5765 5765 5763 5762 5762 5761 5760 5758 5755 5753 5749 5742 5738 5741 5739 5731 5731 5737 5738 5740 5745 5749 5752 5755 5757 5757 5755 5755 5756 5755 5755
5766 5767 5767 5768 5769 5769 5769 5769 5768 5768 5769 5769 5769 5769 5769 5770 5770 5772 5772 5765 5759 5758 5760 5763 5763 5764 5767 5770 5772 5773 5773 5773 5771 5770 5771 5771 5770 5769 5768 5768 5766 5765 5766 5764 5764 5766 5765 5766 5765 5763 5762 5764 5765 5764 5762 5760 5759 5759 5759 5757 5755 5755 5754 5754 5752 5750 5749 5744 5736 5735 5740 5741 5732 5727 5727 5726 5729 5737 5741 5743 5745 5749 5752 5750 5749 5750 5749 5749
5760 5760 5761 5762 5763 5762 5763 5763 5762 5762 5762 5762 5762 5762 5763 5764 5765 5766 5762 5757 5755 5755 5758 5759 5757 5756 5758 5760 5761 5763 5764 5764 5764 5764 5764 5763 5762 5762 5761 5760 5759 5759 5759 5758 5758 5761 5760 5758 5757 5756 5757 5758 5757 5756 5755 5754 5753 5753 5753 5751 5749 5747 5746 5746 5743 5743 5742 5736 5733 5736 5741 5741 5729 5718 5717 5720 5725 5729 5731 5734 5735 5737 5742 5744 5742 5742 5743 5743
5754 5754 5754 5755 5756 5756 5757 5757 5756 5756 5755 5755 5756 5756 5756 5755 5757 5757 5752 5752 5753 5753 5756 5754 5751 5751 5751 5750 5751 5753 5755 5756 5756 5756 5756 5755 5755 5754 5754 5754 5752 5751 5751 5751 5752 5754 5753 5751 5751 5751 5750 5749 5749 5748 5748 5748 5747 5747 5746 5745 5742 5740 5739 5736 5735 5735 5733 5728 5731 5736 5738 5736 5723 5712 5712 5718 5723 5725 5724 5725 5726 5727 5730 5734 5734 5733 5733 5736
5748 5748 5747 5748 5749 5750 5751 5750 5750 5749 5748 5749 5749 5748 5748 5746 5746 5747 5747 5749 5748 5747 5752 5749 5745 5746 5744 5743 5744 5745 5746 5746 5746 5747 5747 5747 5747 5747 5747 5746 5746 5744 5744 5746 5746 5746 5746 5746 5745 5744 5744 5744 5742 5742 5742 5741 5741 5739 5738 5737 5734 5733 5731 5727 5726 5727 5725 5725 5729 5731 5731 5724 5713 5709 5713 5718 5722 5722 5719 5719 5719 5721 5721 5721 5724 5724 5722 5725
5741 5741 5740 5740 5741 5742 5743 5743 5743 5742 5742 5742 5741 5740 5740 5736 5736 5741 5743 5744 5741 5740 5744 5742 5739 5739 5737 5738 5739 5737 5737 5737 5737 5737 5737 5737 5738 5738 5739 5739 5739 5737 5736 5738 5738 5738 5739 5742 5741 5737 5737 5739 5736 5734 5734 5733 5733 5731 5731 5730 5726 5725 5722 5717 5719 5720 5718 5720 5723 5723 5720 5711 5704 5706 5711 5716 5720 5718 5715 5716 5716 5716 5715 5712 5713 5715 5713 5714
5733 5733 5733 5734 5734 5735 5737 5737 5736 5735 5734 5733 5733 5731 5729 5726 5730 5735 5736 5736 5735 5733 5734 5734 5733 5732 5731 5732 5731 5730 5730 5729 5729 5729 5727 5728 5728 5729 5730 5730 5730 5729 5727 5726 5726 5728 5728 5733 5738 5733 5729 5732 5730 5728 5726 5725 5725 5724 5724 5722 5718 5718 5714 5710 5714 5715 5711 5712 5713 5712 5708 5702 5701 5704 5704 5707 5711 5711 5711 5713 5713 5711 5710 5707 5705 5707 5708 5706
5725 5725 5725 5727 5728 5728 5730 5729 5728 5727 5724 5724 5723 5719 5718 5721 5725 5728 5728 5728 5727 5726 5726 5728 5727 5726 5725 5725 5724 5724 5724 5721 5721 5720 5719 5719 5720 5720 5722 5721 5721 5720 5719 5716 5715 5717 5713 5717 5728 5725 5721 5725 5725 5722 5721 5717 5716 5718 5717 5712 5710 5712 5710 5705 5705 5707 5705 5702 5702 5701 5697 5696 5700 5700 5700 5701 5700 5702 5705 5707 5708 5706 5704 5702 5700 5701 5703 5702
5716 5716 5717 5719 5721 5720 5720 5719 5718 5718 5715 5714 5711 5708 5712 5718 5720 5719 5719 5719 5719 5719 5719 5720 5720 5720 5719 5718 5717 5718 5717 5715 5714 5711 5710 5711 5711 5713 5715 5715 5714 5713 5711 5709 5707 5707 5702 5703 5712 5714 5711 5716 5716 5715 5715 5711 5708 5709 5708 5705 5705 5706 5703 5698 5694 5697 5698 5690 5690 5693 5688 5689 5695 5694 5695 5698 5695 5697 5699 5699 5699 5697 5696 5696 5696 5697 5699 5699
5707 5707 5708 5711 5712 5709 5709 5709 5708 5708 5707 5703 5698 5700 5708 5713 5713 5712 5711 5712 5711 5710 5710 5711 5711 5712 5712 5711 5711 5712 5710 5708 5706 5703 5703 5703 5702 5706 5709 5708 5708 5705 5704 5703 5699 5698 5695 5692 5699 5704 5702 5703 5706 5705 5704 5703 5701 5699 5699 5701 5701 5696 5694 5691 5684 5684 5686 5678 5678 5688 5685 5683 5687 5687 5690 5691 5691 5692 5692 5691 5690 5687 5685 5687 5690 5693 5692 5691
5697 5697 5699 5703 5702 5698 5699 5698 5696 5697 5696 5691 5688 5693 5701 5705 5708 5707 5704 5703 5702 5700 5701 5701 5701 5703 5703 5702 5704 5704 5702 5699 5697 5695 5694 5693 5693 5698 5701 5701 5701 5699 5697 5695 5690 5689 5687 5681 5685 5695 5695 5692 5694 5695 5693 5694 5693 5690 5691 5694 5693 5688 5685 5684 5677 5673 5674 5668 5666 5676 5680 5678 5680 5684 5686 5685 5685 5685 5684 5683 5681 5678 5677 5677 5679 5684 5685 5682
5687 5687 5689 5694 5692 5688 5689 5686 5684 5685 5683 5680 5682 5687 5693 5697 5700 5699 5696 5695 5693 5691 5691 5691 5692 5693 5693 5695 5696 5695 5694 5692 5690 5687 5685 5684 5685 5689 5692 5691 5691 5692 5689 5687 5683 5681 5680 5673 5671 5681 5688 5683 5682 5686 5686 5686 5686 5684 5683 5682 5682 5681 5678 5675 5670 5665 5664 5659 5655 5660 5665 5669 5678 5683 5682 5681 5680 5679 5677 5676 5674 5673 5672 5671 5669 5672 5675 5674
5678 5676 5680 5686 5682 5678 5680 5677 5673 5673 5670 5671 5675 5679 5683 5687 5688 5690 5689 5686 5684 5682 5682 5683 5683 5682 5684 5687 5688 5687 5688 5686 5683 5681 5677 5677 5678 5682 5686 5685 5684 5685 5682 5679 5677 5674 5672 5667 5662 5668 5677 5674 5674 5680 5680 5679 5678 5675 5673 5672 5671 5672 5670 5665 5660 5658 5658 5652 5648 5646 5643 5655 5677 5682 5676 5676 5676 5673 5671 5669 5667 5667 5666 5666 5664 5663 5664 5663
5668 5666 5672 5678 5671 5667 5670 5665 5662 5662 5660 5662 5668 5670 5672 5674 5678 5682 5682 5677 5674 5673 5672 5672 5671 5672 5674 5677 5679 5681 5679 5675 5675 5674 5669 5671 5673 5674 5681 5684 5680 5679 5677 5672 5669 5667 5664 5659 5654 5656 5661 5663 5669 5676 5674 5670 5670 5667 5663 5663 5664 5664 5661 5655 5648 5650 5653 5645 5641 5638 5627 5637 5668 5678 5672 5672 5670 5665 5663 5661 5661 5662 5660 5659 5659 5657 5656 5653
5658 5658 5663 5667 5660 5657 5658 5653 5652 5653 5650 5653 5660 5662 5661 5663 5667 5672 5673 5669 5665 5663 5662 5660 5660 5663 5664 5665 5668 5669 5665 5662 5665 5664 5661 5665 5667 5666 5674 5680 5675 5671 5669 5662 5660 5661 5656 5649 5643 5644 5648 5652 5659 5666 5665 5662 5662 5659 5654 5655 5658 5657 5653 5647 5640 5642 5644 5635 5633 5631 5616 5621 5654 5671 5668 5666 5662 5656 5655 5655 5654 5654 5654 5652 5651 5650 5648 5647
5648 5649 5652 5654 5650 5647 5644 5641 5644 5645 5642 5646 5652 5652 5651 5652 5656 5660 5662 5661 5656 5653 5652 5651 5652 5653 5653 5654 5654 5654 5652 5649 5650 5654 5654 5654 5656 5660 5666 5669 5665 5661 5657 5652 5652 5652 5646 5638 5633 5633 5637 5639 5643 5650 5654 5654 5653 5649 5648 5652 5652 5648 5647 5642 5635 5635 5631 5624 5626 5621 5606 5613 5644 5661 5659 5657 5654 5650 5649 5648 5646 5645 5645 5645 5643 5641 5638 5638
5638 5640 5641 5642 5640 5636 5631 5632 5637 5636 5635 5639 5640 5640 5641 5641 5644 5650 5653 5651 5646 5643 5642 5642 5643 5643 5642 5643 5641 5641 5642 5636 5634 5641 5644 5640 5644 5653 5657 5656 5654 5650 5644 5641 5642 5640 5634 5629 5626 5623 5624 5626 5629 5634 5641 5645 5644 5638 5639 5645 5642 5639 5639 5633 5628 5626 5618 5615 5621 5612 5597 5609 5636 5648 5648 5647 5646 5645 5645 5642 5639 5637 5638 5636 5633 5632 5630 5629
5627 5629 5631 5630 5628 5626 5623 5625 5628 5625 5625 5628 5627 5629 5631 5630 5634 5641 5642 5639 5636 5634 5632 5631 5633 5633 5632 5632 5630 5630 5632 5628 5623 5626 5629 5630 5633 5641 5647 5646 5644 5639 5634 5633 5632 5626 5621 5619 5617 5614 5611 5613 5616 5623 5629 5633 5630 5624 5625 5630 5631 5631 5630 5624 5620 5614 5605 5607 5612 5601 5593 5605 5625 5633 5636 5639 5640 5639 5640 5638 5633 5631 5631 5627 5623 5622 5622 5622
5616 5618 5621 5618 5614 5614 5616 5619 5618 5614 5616 5618 5615 5617 5620 5620 5625 5630 5629 5627 5627 5626 5622 5620 5621 5622 5621 5622 5621 5619 5621 5621 5616 5613 5615 5619 5623 5629 5634 5634 5632 5630 5629 5627 5622 5616 5611 5607 5607 5605 5600 5601 5605 5612 5618 5619 5614 5611 5612 5615 5618 5619 5618 5615 5609 5601 5599 5600 5595 5591 5595 5598 5607 5619 5626 5630 5632 5631 5632 5632 5627 5623 5621 5618 5616 5615 5614 5614
5606 5608 5610 5607 5603 5604 5608 5610 5609 5605 5606 5607 5603 5605 5610 5611 5613 5615 5615 5616 5617 5617 5612 5609 5611 5613 5612 5613 5611 5607 5608 5610 5607 5604 5604 5606 5610 5615 5618 5619 5619 5620 5621 5617 5611 5609 5603 5596 5599 5598 5593 5593 5596 5600 5606 5606 5600 5600 5601 5602 5605 5608 5607 5603 5595 5591 5597 5591 5577 5584 5595 5588 5590 5606 5613 5617 5622 5622 5622 5621 5615 5612 5612 5610 5610 5609 5606 5606
5597 5598 5598 5594 5594 5598 5599 5599 5598 5596 5596 5596 5593 5593 5599 5602 5602 5602 5602 5603 5605 5606 5603 5600 5602 5604 5603 5603 5599 5594 5597 5598 5596 5596 5596 5594 5595 5598 5601 5605 5608 5608 5609 5604 5601 5602 5595 5586 5590 5590 5585 5588 5590 5589 5594 5594 5590 5590 5591 5590 5594 5597 5595 5591 5585 5586 5590 5579 5569 5579 5586 5578 5581 5592 5596 5602 5608 5607 5606 5606 5603 5603 5603 5602 5602 5599 5596 5595
5587 5589 5587 5583 5585 5591 5590 5588 5588 5587 5587 5587 5584 5584 5588 5590 5591 5590 5590 5590 5592 5595 5595 5591 5591 5592 5592 5592 5589 5586 5588 5588 5585 5586 5587 5584 5584 5585 5587 5592 5596 5596 5595 5592 5591 5593 5585 5577 5581 5581 5576 5578 5581 5580 5582 5583 5581 5580 5580 5582 5584 5585 5584 5580 5577 5579 5578 5568 5566 5572 5571 5567 5574 5580 5582 5588 5590 5588 5588 5590 5591 5592 5593 5593 5592 5588 5584 5582
5576 5578 5578 5575 5576 5582 5581 5577 5578 5578 5578 5579 5577 5577 5580 5579 5579 5580 5580 5580 5579 5582 5585 5582 5578 5579 5581 5582 5582 5579 5579 5578 5575 5576 5577 5576 5576 5578 5576 5578 5583 5585 5583 5581 5581 5582 5576 5569 5573 5573 5565 5563 5569 5571 5571 5572 5570 5568 5570 5574 5575 5573 5572 5571 5569 5570 5567 5561 5561 5563 5557 5554 5565 5573 5573 5573 5574 5573 5574 5575 5577 5580 5582 5581 5576 5570 5568 5568
5566 5566 5568 5567 5568 5572 5571 5568 5568 5567 5569 5572 5570 5567 5568 5569 5571 5571 5571 5572 5569 5568 5572 5572 5568 5569 5570 5571 5573 5570 5569 5569 5567 5567 5569 5567 5568 5570 5568 5569 5573 5573 5572 5572 5571 5570 5567 5562 5564 5564 5554 5550 5559 5561 5558 5560 5558 5553 5556 5563 5566 5565 5562 5561 5562 5562 5558 5553 5552 5552 5545 5545 5558 5566 5562 5561 5562 5561 5561 5563 5565 5566 5565 5562 5556 5553 5555 5557
5557 5556 5557 5557 5558 5563 5562 5559 5559 5558 5560 5565 5561 5555 5557 5560 5561 5560 5559 5562 5562 5560 5561 5561 5559 5559 5559 5560 5562 5560 5558 5558 5557 5558 5559 5557 5557 5559 5560 5562 5565 5564 5563 5564 5562 5561 5559 5554 5553 5553 5544 5540 5549 5550 5547 5549 5541 5535 5546 5557 5558 5555 5551 5550 5551 5551 5551 5548 5542 5539 5538 5541 5549 5551 5547 5548 5550 5550 5551 5551 5547 5546 5548 5547 5544 5544 5544 5544